Powrót do katalogu

BREEZE-M DEB

LostHEO
NORAD 32498·DEBRIS·🇷🇺 Russia

Wystrzelony Feb 28, 2006 z Baikonur Cosmodrome

Loading…

Następne Przeloty (najbliższe 24 godziny)

TLE

NieaktualneSource: Space-Track

Epoka: May 13, 2021, 05:36 UTC

1 32498U 06006AM  21133.23363051  .00003557  00000-0  29805-2 0  9997
2 32498  51.7426 255.4289 4951621 228.5903  76.9451  5.53830313268026

Śledź BREEZE-M DEB w czasie rzeczywistym z AllMySat

Download on the App Store